DLH7L EDDF-KBOS

Flight info

Callsign DLH7L
Flight time N/A
Altitude 38000
Route OBOKA3M/25C OBOKA Z29 TORNU DCT BATAK DCT GALSO Q63 ERING L179 UGBET Q60 OKSAW DCT BIBPE DCT OKTAD DCT AZCAL DCT MEDOG DCT KRAGY DCT PEMOB DCT BAKUR DCT SHA DCT UNBEG DCT NEBIN/M080F390 DCT 5330N02000W 5330N03000W 53N040W 52N050W DCT TUDEP/N0466F400 N526A TOPPS DCT AJJAY OOSHN5
Aircraft A343/H-SDE2E3FGHIJ4J5M1RWXY/LB1D1

Departure

Time N/A
Airport Frankfurt Main Airport (EDDF)

Arrival

Time 2026-05-04 01:34
Airport Boston Logan International Airport (KBOS)
Time Latitude Longitude Altitude Speed Heading
2026-05-03 20:15 53.52580 -17.79385 39219 ft 461 kts 272°
2026-05-03 20:15 53.52548 -17.90155 39215 ft 461 kts 272°
2026-05-03 20:16 53.52508 -18.00859 39219 ft 461 kts 272°
2026-05-03 20:16 53.52457 -18.11624 39227 ft 461 kts 272°
2026-05-03 20:17 53.52397 -18.22383 39225 ft 461 kts 272°
2026-05-03 20:17 53.52327 -18.33150 39227 ft 461 kts 272°
2026-05-03 20:18 53.52248 -18.43917 39225 ft 461 kts 272°
2026-05-03 20:18 53.52159 -18.54614 39232 ft 461 kts 272°
2026-05-03 20:19 53.52060 -18.65379 39234 ft 461 kts 272°
2026-05-03 20:19 53.51952 -18.76150 39230 ft 461 kts 272°
2026-05-03 20:20 53.51833 -18.86912 39235 ft 461 kts 272°
2026-05-03 20:20 53.51707 -18.97592 39230 ft 460 kts 271°
2026-05-03 20:21 53.51569 -19.08338 39237 ft 460 kts 271°
2026-05-03 20:21 53.51423 -19.19079 39239 ft 460 kts 271°
2026-05-03 20:22 53.51266 -19.29821 39235 ft 460 kts 271°
2026-05-03 20:22 53.51100 -19.40556 39238 ft 460 kts 271°
2026-05-03 20:23 53.50926 -19.51223 39239 ft 460 kts 271°
2026-05-03 20:23 53.50741 -19.61951 39247 ft 459 kts 271°
2026-05-03 20:24 53.50546 -19.72669 39245 ft 459 kts 271°
2026-05-03 20:24 53.50342 -19.83389 39253 ft 459 kts 271°
2026-05-03 20:25 53.50130 -19.94032 39256 ft 459 kts 271°
2026-05-03 20:25 53.50220 -20.04719 39248 ft 457 kts 276°
2026-05-03 20:26 53.50616 -20.15354 39256 ft 456 kts 276°
2026-05-03 20:26 53.51049 -20.25894 39258 ft 455 kts 276°
2026-05-03 20:27 53.51476 -20.36509 39258 ft 456 kts 276°
2026-05-03 20:27 53.51887 -20.47129 39257 ft 455 kts 276°
2026-05-03 20:28 53.52284 -20.57742 39262 ft 455 kts 276°
2026-05-03 20:28 53.52670 -20.68350 39261 ft 454 kts 276°
2026-05-03 20:29 53.53045 -20.78866 39269 ft 454 kts 276°
2026-05-03 20:29 53.53412 -20.89442 39268 ft 453 kts 276°
2026-05-03 20:30 53.53771 -21.00024 39271 ft 453 kts 276°
2026-05-03 20:30 53.54120 -21.10607 39274 ft 453 kts 276°
2026-05-03 20:31 53.54458 -21.21118 39269 ft 453 kts 275°
2026-05-03 20:31 53.54787 -21.31693 39271 ft 453 kts 275°
2026-05-03 20:32 53.55108 -21.42260 39268 ft 453 kts 275°
2026-05-03 20:32 53.55417 -21.52763 39273 ft 453 kts 275°
2026-05-03 20:33 53.55719 -21.63345 39276 ft 453 kts 275°
2026-05-03 20:33 53.56012 -21.73915 39276 ft 452 kts 275°
2026-05-03 20:34 53.56295 -21.84493 39280 ft 452 kts 275°
2026-05-03 20:34 53.56567 -21.94987 39282 ft 452 kts 274°
2026-05-03 20:35 53.56831 -22.05560 39283 ft 452 kts 274°
2026-05-03 20:35 53.57086 -22.16140 39284 ft 453 kts 274°
2026-05-03 20:36 53.57333 -22.26728 39285 ft 453 kts 274°
2026-05-03 20:36 53.57568 -22.37234 39283 ft 452 kts 274°
2026-05-03 20:37 53.57794 -22.47781 39287 ft 451 kts 274°
2026-05-03 20:37 53.58014 -22.58334 39292 ft 451 kts 274°
2026-05-03 20:38 53.58238 -22.68878 39292 ft 451 kts 274°
2026-05-03 20:38 53.58445 -22.79361 39298 ft 451 kts 274°
2026-05-03 20:39 53.58637 -22.89915 39297 ft 451 kts 273°
2026-05-03 20:39 53.58816 -23.00432 39300 ft 449 kts 273°
2026-05-03 20:40 53.58986 -23.10941 39301 ft 449 kts 273°
2026-05-03 20:40 53.59147 -23.21460 39306 ft 449 kts 273°
2026-05-03 20:41 53.59297 -23.31901 39303 ft 449 kts 273°
2026-05-03 20:41 53.59439 -23.42411 39303 ft 449 kts 273°
2026-05-03 20:42 53.59572 -23.52925 39314 ft 449 kts 273°
2026-05-03 20:42 53.59696 -23.63422 39315 ft 449 kts 273°
2026-05-03 20:43 53.59811 -23.73924 39315 ft 449 kts 272°
2026-05-03 20:43 53.59916 -23.84358 39311 ft 449 kts 272°
2026-05-03 20:44 53.60012 -23.94866 39316 ft 449 kts 272°
2026-05-03 20:44 53.60099 -24.05329 39314 ft 446 kts 272°
2026-05-03 20:45 53.60176 -24.15745 39325 ft 444 kts 272°
2026-05-03 20:45 53.60244 -24.26070 39325 ft 444 kts 272°
2026-05-03 20:46 53.60304 -24.36464 39326 ft 444 kts 272°
2026-05-03 20:46 53.60355 -24.46866 39326 ft 444 kts 272°
2026-05-03 20:47 53.60397 -24.57268 39327 ft 444 kts 272°
2026-05-03 20:47 53.60430 -24.67605 39330 ft 445 kts 272°
2026-05-03 20:48 53.60454 -24.78016 39330 ft 445 kts 272°
2026-05-03 20:48 53.60469 -24.88426 39331 ft 445 kts 272°
2026-05-03 20:49 53.60474 -24.98840 39332 ft 445 kts 271°
2026-05-03 20:49 53.60471 -25.09188 39338 ft 445 kts 271°
2026-05-03 20:50 53.60458 -25.19599 39336 ft 445 kts 271°
2026-05-03 20:50 53.60436 -25.30025 39343 ft 445 kts 271°
2026-05-03 20:51 53.60406 -25.40429 39343 ft 445 kts 271°
2026-05-03 20:51 53.60367 -25.50772 39344 ft 444 kts 271°
2026-05-03 20:52 53.60318 -25.61176 39344 ft 445 kts 271°
2026-05-03 20:52 53.60261 -25.71580 39344 ft 445 kts 271°
2026-05-03 20:53 53.60194 -25.81991 39343 ft 444 kts 271°
2026-05-03 20:53 53.60119 -25.92385 39344 ft 444 kts 271°
2026-05-03 20:54 53.60036 -26.02712 39352 ft 444 kts 270°
2026-05-03 20:54 53.59892 -26.18314 39352 ft 444 kts 270°
2026-05-03 20:55 53.59785 -26.28705 39355 ft 444 kts 270°
2026-05-03 20:55 53.59669 -26.39035 39354 ft 444 kts 270°
2026-05-03 20:56 53.59545 -26.49422 39368 ft 444 kts 270°
2026-05-03 20:56 53.59411 -26.59816 39360 ft 444 kts 270°
2026-05-03 20:57 53.59268 -26.70206 39363 ft 444 kts 270°
2026-05-03 20:57 53.59117 -26.80521 39363 ft 444 kts 270°
2026-05-03 20:58 53.58957 -26.90905 39361 ft 444 kts 269°
2026-05-03 20:58 53.58787 -27.01264 39365 ft 443 kts 269°
2026-05-03 20:59 53.58608 -27.11618 39366 ft 442 kts 269°
2026-05-03 20:59 53.58422 -27.21905 39366 ft 442 kts 269°
2026-05-03 21:00 53.58292 -27.28824 39370 ft 442 kts 269°
2026-05-03 21:00 53.58021 -27.42613 39374 ft 442 kts 269°
2026-05-03 21:01 53.57809 -27.52890 39371 ft 442 kts 269°
2026-05-03 21:01 53.57586 -27.63238 39373 ft 443 kts 269°
2026-05-03 21:02 53.57354 -27.73582 39378 ft 443 kts 269°
2026-05-03 21:02 53.57113 -27.83937 39373 ft 443 kts 269°
2026-05-03 21:03 53.56865 -27.94212 39373 ft 443 kts 269°
2026-05-03 21:03 53.56606 -28.04557 39376 ft 442 kts 268°
2026-05-03 21:04 53.56340 -28.14874 39382 ft 441 kts 268°
2026-05-03 21:04 53.56065 -28.25185 39384 ft 441 kts 268°
2026-05-03 21:05 53.55782 -28.35422 39382 ft 441 kts 268°
2026-05-03 21:05 53.55489 -28.45716 39381 ft 441 kts 268°
2026-05-03 21:06 53.55187 -28.56029 39384 ft 441 kts 268°
2026-05-03 21:06 53.54877 -28.66322 39384 ft 441 kts 268°
2026-05-03 21:07 53.54558 -28.76611 39390 ft 441 kts 268°
2026-05-03 21:07 53.54232 -28.86820 39390 ft 440 kts 268°
2026-05-03 21:08 53.53895 -28.97111 39389 ft 440 kts 267°
2026-05-03 21:08 53.53550 -29.07392 39387 ft 441 kts 267°
2026-05-03 21:09 53.53196 -29.17665 39386 ft 440 kts 267°
2026-05-03 21:09 53.52832 -29.27955 39390 ft 441 kts 267°
2026-05-03 21:10 53.52462 -29.38159 39395 ft 441 kts 267°
2026-05-03 21:10 53.52081 -29.48444 39395 ft 441 kts 267°
2026-05-03 21:11 53.51691 -29.58725 39395 ft 441 kts 267°
2026-05-03 21:11 53.51295 -29.68934 39395 ft 441 kts 266°
2026-05-03 21:12 53.50887 -29.79211 39398 ft 441 kts 266°
2026-05-03 21:12 53.50471 -29.89495 39401 ft 441 kts 266°
2026-05-03 21:13 53.50045 -29.99783 39403 ft 441 kts 266°
2026-05-03 21:13 53.49808 -30.10016 39403 ft 441 kts 270°
2026-05-03 21:14 53.49788 -30.20318 39401 ft 442 kts 270°
2026-05-03 21:14 53.49745 -30.30639 39403 ft 442 kts 269°
2026-05-03 21:15 53.49651 -30.40952 39403 ft 442 kts 269°
2026-05-03 21:15 53.49530 -30.51201 39403 ft 442 kts 269°
2026-05-03 21:16 53.49398 -30.61526 39403 ft 442 kts 269°
2026-05-03 21:16 53.49258 -30.71837 39403 ft 442 kts 269°
2026-05-03 21:17 53.49136 -30.80415 39406 ft 442 kts 269°
2026-05-03 21:17 53.48956 -30.92401 39405 ft 442 kts 269°
2026-05-03 21:18 53.48791 -31.02703 39411 ft 441 kts 269°
2026-05-03 21:18 53.48617 -31.13008 39412 ft 441 kts 268°
2026-05-03 21:19 53.48435 -31.23304 39415 ft 441 kts 268°
2026-05-03 21:19 53.48244 -31.33607 39414 ft 442 kts 268°
2026-05-03 21:20 53.48045 -31.43840 39409 ft 442 kts 268°
2026-05-03 21:20 53.47837 -31.54137 39414 ft 441 kts 268°
2026-05-03 21:21 53.47619 -31.64439 39414 ft 441 kts 268°
2026-05-03 21:21 53.47392 -31.74735 39414 ft 441 kts 268°
2026-05-03 21:22 53.47158 -31.84961 39414 ft 441 kts 268°
2026-05-03 21:22 53.46914 -31.95248 39414 ft 441 kts 268°
2026-05-03 21:23 53.46661 -32.05539 39417 ft 441 kts 268°
2026-05-03 21:23 53.46399 -32.15824 39417 ft 441 kts 268°
2026-05-03 21:24 53.46130 -32.26041 39427 ft 441 kts 267°
2026-05-03 21:24 53.45851 -32.36315 39417 ft 441 kts 267°
2026-05-03 21:25 53.45563 -32.46600 39419 ft 441 kts 267°
2026-05-03 21:25 53.45265 -32.56888 39419 ft 441 kts 267°
2026-05-03 21:26 53.44959 -32.67172 39416 ft 441 kts 267°
2026-05-03 21:26 53.44646 -32.77375 39419 ft 441 kts 267°
2026-05-03 21:27 53.44323 -32.87644 39420 ft 441 kts 267°
2026-05-03 21:27 53.43990 -32.97913 39420 ft 441 kts 267°
2026-05-03 21:28 53.43649 -33.08182 39419 ft 441 kts 267°
2026-05-03 21:28 53.43302 -33.18384 39419 ft 441 kts 267°
2026-05-03 21:29 53.42944 -33.28641 39419 ft 441 kts 266°
2026-05-03 21:29 53.42576 -33.38907 39420 ft 441 kts 266°
2026-05-03 21:30 53.42200 -33.49173 39422 ft 441 kts 266°
2026-05-03 21:30 53.41817 -33.59374 39419 ft 441 kts 266°
2026-05-03 21:31 53.41423 -33.69640 39422 ft 441 kts 266°
2026-05-03 21:31 53.41021 -33.79912 39422 ft 441 kts 266°
2026-05-03 21:32 53.40610 -33.90169 39422 ft 441 kts 266°
2026-05-03 21:32 53.40189 -34.00430 39422 ft 441 kts 266°
2026-05-03 21:33 53.39763 -34.10615 39420 ft 441 kts 266°
2026-05-03 21:33 53.39325 -34.20881 39419 ft 441 kts 266°
2026-05-03 21:34 53.38878 -34.31138 39422 ft 441 kts 266°
2026-05-03 21:34 53.38422 -34.41388 39424 ft 442 kts 266°
2026-05-03 21:35 53.37960 -34.51580 39420 ft 442 kts 266°
2026-05-03 21:35 53.37487 -34.61850 39420 ft 442 kts 266°
2026-05-03 21:36 53.37004 -34.72114 39422 ft 442 kts 266°
2026-05-03 21:36 53.36513 -34.82379 39419 ft 442 kts 265°
2026-05-03 21:37 53.36016 -34.92571 39417 ft 442 kts 265°
2026-05-03 21:37 53.35507 -35.02824 39415 ft 442 kts 265°
2026-05-03 21:38 53.35077 -35.11351 39420 ft 442 kts 265°
2026-05-03 21:38 53.34552 -35.21594 39417 ft 442 kts 265°
2026-05-03 21:39 53.33931 -35.33500 39417 ft 442 kts 265°
2026-05-03 21:39 53.33388 -35.43736 39417 ft 442 kts 265°
2026-05-03 21:40 53.32929 -35.52240 39417 ft 442 kts 265°
2026-05-03 21:40 53.32370 -35.62478 39416 ft 442 kts 265°
2026-05-03 21:41 53.31802 -35.72705 39411 ft 441 kts 265°
2026-05-03 21:41 53.31225 -35.82922 39411 ft 441 kts 265°
2026-05-03 21:42 53.30643 -35.93071 39414 ft 441 kts 265°
2026-05-03 21:42 53.30050 -36.03284 39414 ft 441 kts 265°
2026-05-03 21:43 53.29447 -36.13501 39411 ft 441 kts 265°
2026-05-03 21:43 53.28839 -36.23638 39410 ft 441 kts 265°
2026-05-03 21:44 53.28219 -36.33832 39413 ft 441 kts 264°
2026-05-03 21:44 53.27591 -36.44018 39420 ft 441 kts 264°
2026-05-03 21:45 53.26956 -36.54203 39409 ft 441 kts 264°
2026-05-03 21:45 53.26310 -36.64393 39411 ft 441 kts 264°
2026-05-03 21:46 53.25659 -36.74510 39411 ft 441 kts 264°
2026-05-03 21:46 53.24996 -36.84693 39411 ft 441 kts 264°
2026-05-03 21:47 53.24325 -36.94865 39409 ft 441 kts 264°
2026-05-03 21:47 53.23645 -37.05034 39408 ft 441 kts 264°
2026-05-03 21:48 53.22961 -37.15129 39408 ft 441 kts 264°
2026-05-03 21:48 53.22264 -37.25291 39408 ft 441 kts 264°
2026-05-03 21:49 53.21559 -37.35443 39400 ft 441 kts 264°
2026-05-03 21:49 53.20846 -37.45586 39401 ft 440 kts 264°
2026-05-03 21:50 53.20128 -37.55656 39405 ft 440 kts 263°
2026-05-03 21:50 53.19397 -37.65799 39400 ft 441 kts 263°
2026-05-03 21:51 53.18656 -37.75948 39398 ft 441 kts 263°
2026-05-03 21:51 53.17908 -37.86092 39398 ft 441 kts 263°
2026-05-03 21:52 53.17155 -37.96171 39397 ft 441 kts 263°
2026-05-03 21:52 53.16390 -38.06298 39395 ft 441 kts 263°
2026-05-03 21:53 53.15616 -38.16426 39390 ft 441 kts 263°
2026-05-03 21:53 53.14832 -38.26551 39387 ft 441 kts 263°
2026-05-03 21:54 53.14041 -38.36670 39387 ft 441 kts 263°
2026-05-03 21:54 53.13247 -38.46714 39387 ft 441 kts 263°
2026-05-03 21:55 53.12438 -38.56826 39392 ft 441 kts 263°
2026-05-03 21:55 53.11620 -38.66947 39384 ft 441 kts 263°
2026-05-03 21:56 53.10792 -38.77075 39384 ft 442 kts 263°
2026-05-03 21:56 53.09957 -38.87193 39384 ft 442 kts 262°
2026-05-03 21:57 53.09118 -38.97245 39376 ft 442 kts 262°
2026-05-03 21:57 53.08265 -39.07360 39376 ft 442 kts 262°
2026-05-03 21:58 53.07403 -39.17471 39373 ft 442 kts 262°
2026-05-03 21:58 53.06533 -39.27579 39373 ft 442 kts 262°
2026-05-03 21:59 53.05659 -39.37619 39371 ft 442 kts 262°
2026-05-03 21:59 53.04772 -39.47713 39368 ft 442 kts 262°
2026-05-03 22:00 53.03876 -39.57814 39379 ft 441 kts 262°
2026-05-03 22:00 53.02972 -39.67898 39370 ft 442 kts 262°
2026-05-03 22:01 53.02065 -39.77925 39368 ft 442 kts 262°
2026-05-03 22:01 53.01142 -39.88016 39360 ft 442 kts 262°
2026-05-03 22:02 53.00212 -39.98104 39360 ft 442 kts 262°
2026-05-03 22:02 52.99417 -40.08214 39360 ft 442 kts 265°
2026-05-03 22:03 52.98901 -40.18300 39354 ft 442 kts 265°
2026-05-03 22:03 52.98382 -40.28461 39356 ft 442 kts 265°
2026-05-03 22:04 52.97807 -40.38612 39350 ft 442 kts 264°
2026-05-03 22:04 52.97201 -40.48746 39348 ft 442 kts 264°
2026-05-03 22:05 52.96585 -40.58811 39348 ft 442 kts 264°
2026-05-03 22:05 52.95958 -40.68959 39346 ft 442 kts 264°
2026-05-03 22:06 52.95323 -40.79098 39346 ft 442 kts 264°
2026-05-03 22:06 52.94680 -40.89239 39341 ft 442 kts 264°
2026-05-03 22:07 52.94035 -40.99284 39336 ft 441 kts 264°
2026-05-03 22:07 52.93376 -41.09399 39330 ft 441 kts 264°
2026-05-03 22:08 52.92709 -41.19512 39330 ft 441 kts 264°
2026-05-03 22:08 52.92033 -41.29623 39325 ft 441 kts 264°
2026-05-03 22:09 52.91352 -41.39658 39325 ft 441 kts 264°
2026-05-03 22:10 52.90310 -41.54795 39319 ft 441 kts 264°
2026-05-03 22:10 52.89605 -41.64880 39316 ft 441 kts 264°
2026-05-03 22:11 52.88897 -41.74887 39317 ft 441 kts 264°
2026-05-03 22:11 52.88176 -41.84962 39311 ft 441 kts 264°
2026-05-03 22:12 52.87445 -41.95030 39311 ft 441 kts 263°
2026-05-03 22:12 52.86706 -42.05098 39299 ft 441 kts 263°
2026-05-03 22:13 52.85959 -42.15161 39302 ft 440 kts 263°
2026-05-03 22:13 52.85209 -42.25145 39296 ft 440 kts 263°
2026-05-03 22:14 52.84445 -42.35200 39296 ft 440 kts 263°
2026-05-03 22:14 52.83673 -42.45240 39292 ft 440 kts 263°
2026-05-03 22:15 52.82893 -42.55290 39287 ft 441 kts 263°
2026-05-03 22:15 52.82109 -42.65264 39287 ft 441 kts 263°
2026-05-03 22:16 52.81311 -42.75308 39277 ft 440 kts 263°
2026-05-03 22:16 52.80506 -42.85334 39276 ft 440 kts 263°
2026-05-03 22:17 52.79691 -42.95370 39277 ft 440 kts 263°
2026-05-03 22:17 52.78873 -43.05326 39274 ft 440 kts 263°
2026-05-03 22:18 52.78044 -43.15321 39264 ft 438 kts 263°
2026-05-03 22:18 52.77210 -43.25264 39263 ft 436 kts 263°
2026-05-03 22:19 52.76371 -43.35172 39266 ft 436 kts 263°
2026-05-03 22:19 52.75524 -43.45082 39248 ft 436 kts 263°
2026-05-03 22:20 52.74673 -43.54918 39249 ft 436 kts 262°
2026-05-03 22:20 52.73810 -43.64816 39249 ft 436 kts 262°
2026-05-03 22:21 52.72937 -43.74716 39245 ft 436 kts 262°
2026-05-03 22:21 52.72056 -43.84612 39237 ft 435 kts 262°
2026-05-03 22:22 52.71175 -43.94413 39234 ft 435 kts 262°
2026-05-03 22:22 52.70280 -44.04277 39235 ft 435 kts 262°
2026-05-03 22:23 52.69307 -44.14115 39262 ft 436 kts 257°
2026-05-03 22:23 52.68197 -44.23937 39221 ft 436 kts 258°
2026-05-03 22:24 52.67198 -44.33800 39225 ft 436 kts 259°
2026-05-03 22:24 52.66276 -44.43589 39218 ft 435 kts 260°
2026-05-03 22:25 52.65362 -44.53441 39216 ft 435 kts 259°
2026-05-03 22:25 52.64406 -44.63262 39215 ft 435 kts 259°
2026-05-03 22:26 52.63464 -44.73103 39214 ft 435 kts 259°
2026-05-03 22:26 52.62523 -44.82854 39214 ft 435 kts 259°
2026-05-03 22:27 52.61565 -44.92677 39202 ft 435 kts 259°
2026-05-03 22:27 52.60591 -45.02490 39202 ft 435 kts 259°
2026-05-03 22:28 52.59618 -45.12298 39194 ft 435 kts 259°
2026-05-03 22:28 52.58641 -45.22047 39195 ft 435 kts 259°
2026-05-03 22:29 52.57649 -45.31841 39185 ft 435 kts 259°
2026-05-03 22:29 52.56643 -45.41643 39185 ft 435 kts 259°
2026-05-03 22:30 52.55621 -45.51427 39183 ft 435 kts 259°
2026-05-03 22:30 52.54633 -45.61155 39174 ft 434 kts 260°
2026-05-03 22:31 52.53648 -45.70921 39174 ft 433 kts 259°
2026-05-03 22:31 52.52619 -45.80673 39167 ft 433 kts 259°
2026-05-03 22:32 52.51585 -45.90425 39176 ft 433 kts 260°
2026-05-03 22:32 52.50536 -46.00099 39166 ft 433 kts 259°
2026-05-03 22:33 52.49457 -46.09831 39160 ft 433 kts 258°
2026-05-03 22:33 52.48364 -46.19540 39159 ft 432 kts 258°
2026-05-03 22:34 52.47287 -46.29234 39153 ft 431 kts 259°
2026-05-03 22:34 52.46222 -46.38849 39147 ft 431 kts 259°
2026-05-03 22:35 52.45146 -46.48518 39140 ft 431 kts 259°
2026-05-03 22:35 52.44062 -46.58191 39140 ft 431 kts 259°
2026-05-03 22:36 52.42961 -46.67853 39137 ft 431 kts 258°
2026-05-03 22:36 52.41853 -46.77432 39126 ft 430 kts 258°
2026-05-03 22:37 52.40735 -46.87024 39125 ft 428 kts 258°
2026-05-03 22:37 52.39635 -46.96581 39122 ft 427 kts 258°
2026-05-03 22:38 52.38518 -47.06125 39121 ft 427 kts 258°
2026-05-03 22:38 52.37380 -47.15658 39118 ft 427 kts 257°
2026-05-03 22:39 52.36219 -47.25116 39107 ft 427 kts 258°
2026-05-03 22:39 52.35097 -47.34642 39110 ft 425 kts 258°
2026-05-03 22:40 52.33970 -47.44118 39107 ft 424 kts 258°
2026-05-03 22:40 52.32825 -47.53565 39100 ft 424 kts 258°
2026-05-03 22:41 52.31663 -47.63010 39099 ft 424 kts 258°
2026-05-03 22:41 52.30503 -47.72382 39092 ft 424 kts 258°
2026-05-03 22:42 52.29332 -47.81793 39092 ft 422 kts 257°
2026-05-03 22:42 52.28155 -47.91182 39078 ft 421 kts 257°
2026-05-03 22:43 52.26976 -48.00433 39085 ft 418 kts 257°
2026-05-03 22:43 52.25791 -48.09725 39075 ft 418 kts 257°
2026-05-03 22:44 52.24608 -48.19010 39083 ft 418 kts 257°
2026-05-03 22:44 52.23393 -48.28277 39069 ft 418 kts 256°
2026-05-03 22:45 52.22184 -48.37547 39072 ft 418 kts 257°
2026-05-03 22:45 52.20978 -48.46737 39070 ft 417 kts 256°
2026-05-03 22:46 52.19753 -48.55965 39064 ft 416 kts 256°
2026-05-03 22:46 52.18526 -48.65177 39061 ft 416 kts 256°
2026-05-03 22:47 52.17300 -48.74337 39061 ft 417 kts 256°
2026-05-03 22:47 52.16072 -48.83567 39052 ft 417 kts 256°
2026-05-03 22:48 52.14849 -48.92796 39058 ft 417 kts 256°
2026-05-03 22:48 52.13604 -49.02018 39033 ft 417 kts 255°
2026-05-03 22:49 52.12366 -49.11201 39045 ft 420 kts 258°
2026-05-03 22:49 52.11212 -49.20516 39042 ft 420 kts 258°
2026-05-03 22:50 52.09993 -49.29808 39046 ft 420 kts 257°
2026-05-03 22:50 52.08723 -49.39019 39039 ft 420 kts 257°
2026-05-03 22:51 52.07423 -49.48275 39032 ft 421 kts 257°
2026-05-03 22:51 52.06109 -49.57577 39025 ft 422 kts 257°
2026-05-03 22:52 52.04787 -49.66889 39032 ft 424 kts 257°
2026-05-03 22:52 52.03465 -49.76162 39026 ft 424 kts 257°
2026-05-03 22:53 52.02127 -49.85492 39025 ft 424 kts 257°
2026-05-03 22:53 52.00781 -49.94819 39025 ft 424 kts 257°
2026-05-03 22:54 51.99055 -50.03977 39026 ft 425 kts 251°
2026-05-03 22:54 51.96953 -50.12937 39007 ft 425 kts 250°
2026-05-03 22:55 51.94811 -50.21752 39016 ft 421 kts 250°
2026-05-03 22:55 51.92660 -50.30567 39022 ft 420 kts 250°
2026-05-03 22:56 51.90512 -50.39380 39034 ft 420 kts 249°
2026-05-03 22:56 51.88380 -50.48108 39023 ft 419 kts 249°
2026-05-03 22:57 51.86229 -50.56877 39013 ft 419 kts 249°
2026-05-03 22:57 51.84072 -50.65633 39006 ft 419 kts 249°
2026-05-03 22:58 51.81906 -50.74386 39005 ft 419 kts 249°
2026-05-03 22:58 51.79752 -50.83065 39001 ft 419 kts 249°
2026-05-03 22:59 51.77580 -50.91793 39005 ft 419 kts 249°
2026-05-03 22:59 51.75404 -51.00508 39006 ft 419 kts 249°
2026-05-03 23:00 51.73217 -51.09216 38995 ft 418 kts 249°
2026-05-03 23:00 51.71050 -51.17803 38997 ft 415 kts 249°
2026-05-03 23:01 51.68874 -51.26395 38997 ft 414 kts 249°
2026-05-03 23:01 51.66691 -51.34986 38992 ft 414 kts 249°
2026-05-03 23:02 51.64505 -51.43561 39013 ft 414 kts 248°
2026-05-03 23:02 51.62320 -51.52097 38991 ft 416 kts 248°
2026-05-03 23:03 51.60116 -51.60674 38984 ft 414 kts 248°
2026-05-03 23:03 51.57916 -51.69204 38989 ft 413 kts 248°
2026-05-03 23:04 51.55707 -51.77731 39177 ft 414 kts 248°
2026-05-03 23:04 51.53947 -51.84504 39355 ft 415 kts 248°
2026-05-03 23:04 51.52835 -51.88774 39462 ft 415 kts 248°
2026-05-03 23:05 51.51734 -51.92991 39581 ft 416 kts 248°
2026-05-03 23:05 51.50614 -51.97275 39698 ft 416 kts 248°
2026-05-03 23:05 51.49493 -52.01551 39789 ft 416 kts 248°
2026-05-03 23:05 51.48368 -52.05836 39919 ft 417 kts 248°
2026-05-03 23:06 51.47241 -52.10125 39962 ft 418 kts 248°
2026-05-03 23:06 51.44964 -52.18765 39964 ft 422 kts 248°
2026-05-03 23:07 51.42678 -52.27400 39964 ft 420 kts 248°
2026-05-03 23:07 51.40408 -52.35940 39958 ft 420 kts 248°
2026-05-03 23:08 51.38116 -52.44532 39956 ft 420 kts 248°
2026-05-03 23:08 51.35820 -52.53111 39963 ft 419 kts 248°
2026-05-03 23:09 51.33521 -52.61669 39950 ft 419 kts 247°
2026-05-03 23:09 51.31213 -52.70230 39950 ft 419 kts 247°
2026-05-03 23:10 51.28913 -52.78727 39944 ft 419 kts 247°
2026-05-03 23:10 51.26593 -52.87267 39944 ft 419 kts 247°
2026-05-03 23:11 51.24265 -52.95806 39937 ft 420 kts 247°
2026-05-03 23:11 51.21923 -53.04363 39936 ft 421 kts 247°
2026-05-03 23:12 51.19589 -53.12858 39928 ft 421 kts 247°
2026-05-03 23:12 51.17234 -53.21399 39927 ft 421 kts 247°
2026-05-03 23:13 51.14818 -53.29894 39923 ft 421 kts 245°
2026-05-03 23:13 51.12261 -53.38284 39920 ft 421 kts 245°
2026-05-03 23:14 51.09717 -53.46579 39915 ft 420 kts 245°
2026-05-03 23:14 51.07173 -53.54939 39935 ft 420 kts 245°
2026-05-03 23:15 51.04630 -53.63308 39913 ft 421 kts 245°
2026-05-03 23:15 51.02082 -53.71668 39912 ft 421 kts 244°
2026-05-03 23:16 50.99545 -53.79964 39913 ft 420 kts 244°
2026-05-03 23:16 50.96991 -53.88282 39899 ft 418 kts 244°
2026-05-03 23:17 50.94440 -53.96562 39906 ft 418 kts 244°
2026-05-03 23:17 50.91883 -54.04833 39901 ft 418 kts 244°
2026-05-03 23:18 50.89339 -54.13036 39902 ft 418 kts 244°
2026-05-03 23:18 50.86773 -54.21284 39897 ft 417 kts 244°
2026-05-03 23:19 50.84209 -54.29494 39900 ft 414 kts 244°
2026-05-03 23:19 50.81656 -54.37642 39888 ft 413 kts 244°
2026-05-03 23:20 50.79120 -54.45713 39892 ft 413 kts 243°
2026-05-03 23:20 50.76560 -54.53835 39894 ft 413 kts 243°
2026-05-03 23:21 50.73993 -54.61946 39898 ft 413 kts 243°
2026-05-03 23:21 50.71427 -54.70031 39896 ft 411 kts 243°
2026-05-03 23:22 50.67605 -54.82022 39893 ft 409 kts 243°
2026-05-03 23:22 50.65042 -54.90029 39895 ft 409 kts 243°
2026-05-03 23:23 50.62473 -54.98029 39889 ft 409 kts 243°
2026-05-03 23:23 50.59917 -55.05966 39886 ft 409 kts 243°
2026-05-03 23:24 50.57339 -55.13944 39891 ft 409 kts 243°
2026-05-03 23:24 50.54755 -55.21917 39892 ft 409 kts 243°
2026-05-03 23:25 50.52167 -55.29878 39890 ft 409 kts 242°
2026-05-03 23:25 50.49571 -55.37832 39888 ft 409 kts 242°
2026-05-03 23:26 50.46990 -55.45720 39888 ft 409 kts 242°
2026-05-03 23:26 50.44389 -55.53642 39892 ft 407 kts 242°
2026-05-03 23:27 50.41795 -55.61519 39890 ft 406 kts 242°
2026-05-03 23:27 50.39196 -55.69387 39895 ft 407 kts 242°
2026-05-03 23:28 50.36600 -55.77218 39893 ft 408 kts 242°
2026-05-03 23:28 50.33982 -55.85092 39885 ft 408 kts 241°
2026-05-03 23:29 50.31357 -55.92962 39887 ft 407 kts 241°
2026-05-03 23:29 50.28738 -56.00794 39883 ft 406 kts 241°
2026-05-03 23:30 50.26136 -56.08549 39890 ft 406 kts 241°
2026-05-03 23:30 50.23510 -56.16348 39887 ft 406 kts 241°
2026-05-03 23:31 50.20879 -56.24140 39883 ft 406 kts 240°
2026-05-03 23:31 50.18244 -56.31922 39881 ft 405 kts 240°
2026-05-03 23:32 50.15627 -56.39623 39877 ft 404 kts 240°
2026-05-03 23:32 50.12992 -56.47358 39873 ft 404 kts 240°
2026-05-03 23:33 50.10352 -56.55083 39873 ft 404 kts 240°
2026-05-03 23:33 50.07709 -56.62791 39871 ft 404 kts 240°
2026-05-03 23:34 50.05077 -56.70446 39883 ft 404 kts 239°
2026-05-03 23:34 50.02419 -56.78150 39860 ft 404 kts 239°
2026-05-03 23:35 49.99757 -56.85847 39862 ft 404 kts 239°
2026-05-03 23:35 49.97090 -56.93534 39861 ft 404 kts 239°
2026-05-03 23:36 49.94417 -57.01213 39847 ft 404 kts 239°
2026-05-03 23:36 49.91758 -57.08830 39850 ft 404 kts 238°
2026-05-03 23:37 49.89075 -57.16493 39836 ft 404 kts 238°
2026-05-03 23:37 49.86388 -57.24142 39843 ft 404 kts 238°
2026-05-03 23:38 49.83698 -57.31780 39812 ft 404 kts 238°
2026-05-03 23:38 49.81018 -57.39367 39814 ft 404 kts 238°
2026-05-03 23:39 49.78315 -57.46995 39800 ft 404 kts 238°
2026-05-03 23:39 49.75610 -57.54604 39805 ft 404 kts 237°
2026-05-03 23:40 49.72899 -57.62210 39790 ft 404 kts 237°
2026-05-03 23:40 49.70198 -57.69752 39788 ft 404 kts 237°
2026-05-03 23:41 49.67459 -57.77378 39759 ft 407 kts 237°
2026-05-03 23:41 49.64710 -57.85036 39757 ft 408 kts 237°
2026-05-03 23:42 49.61956 -57.92686 39754 ft 408 kts 237°
2026-05-03 23:42 49.59213 -58.00273 39751 ft 408 kts 237°
2026-05-03 23:43 49.56445 -58.07900 39732 ft 408 kts 237°
2026-05-03 23:43 49.53673 -58.15517 39727 ft 408 kts 236°
2026-05-03 23:44 49.50894 -58.23131 39715 ft 408 kts 236°
2026-05-03 23:44 49.48113 -58.30728 39721 ft 408 kts 236°
2026-05-03 23:45 49.45331 -58.38307 39714 ft 410 kts 236°
2026-05-03 23:45 49.42523 -58.45934 39711 ft 410 kts 236°
2026-05-03 23:46 49.39710 -58.53554 39703 ft 410 kts 236°
2026-05-03 23:46 49.36891 -58.61169 39702 ft 410 kts 236°
2026-05-03 23:47 49.34084 -58.68725 39713 ft 411 kts 236°
2026-05-03 23:47 49.31238 -58.76363 39697 ft 414 kts 236°
2026-05-03 23:48 49.28379 -58.84019 39697 ft 414 kts 236°
2026-05-03 23:48 49.25513 -58.91668 39695 ft 414 kts 236°
2026-05-03 23:49 49.22661 -58.99259 39690 ft 414 kts 235°
2026-05-03 23:49 49.19787 -59.06887 39687 ft 414 kts 235°
2026-05-03 23:50 49.17391 -59.13227 39679 ft 414 kts 235°
2026-05-03 23:50 49.14038 -59.22075 39681 ft 414 kts 235°
2026-05-03 23:51 49.11146 -59.29684 39675 ft 414 kts 235°
2026-05-03 23:51 49.08248 -59.37286 39676 ft 414 kts 235°
2026-05-03 23:52 49.05347 -59.44873 39670 ft 415 kts 235°
2026-05-03 23:52 49.02454 -59.52417 39667 ft 415 kts 235°
2026-05-03 23:53 48.99532 -59.60016 39697 ft 416 kts 234°
2026-05-03 23:53 48.96599 -59.67621 39666 ft 418 kts 234°
2026-05-03 23:54 48.93648 -59.75250 39658 ft 419 kts 234°
2026-05-03 23:54 48.90708 -59.82831 39660 ft 419 kts 234°
2026-05-03 23:55 48.87736 -59.90471 39655 ft 421 kts 234°
2026-05-03 23:55 48.84752 -59.98119 39659 ft 421 kts 234°
2026-05-03 23:56 48.81765 -60.05755 39655 ft 421 kts 234°
2026-05-03 23:56 48.78774 -60.13376 39653 ft 421 kts 234°
2026-05-03 23:57 48.75792 -60.20953 39649 ft 423 kts 234°
2026-05-03 23:57 48.72765 -60.28619 39649 ft 425 kts 234°
2026-05-03 23:58 48.69731 -60.36289 39643 ft 425 kts 234°
2026-05-03 23:58 48.66686 -60.43963 39649 ft 425 kts 234°
2026-05-03 23:59 48.63662 -60.51562 39638 ft 425 kts 234°
2026-05-03 23:59 48.60597 -60.59235 39639 ft 428 kts 234°
2026-05-04 00:00 48.57511 -60.66942 39635 ft 429 kts 234°
2026-05-04 00:00 48.54418 -60.74648 39633 ft 429 kts 234°
2026-05-04 00:01 48.51340 -60.82293 39632 ft 429 kts 234°
2026-05-04 00:01 48.48238 -60.89976 39630 ft 429 kts 234°
2026-05-04 00:02 48.45122 -60.97669 39619 ft 430 kts 234°
2026-05-04 00:02 48.42000 -61.05357 39610 ft 430 kts 234°
2026-05-04 00:03 48.38894 -61.12984 39618 ft 430 kts 234°
2026-05-04 00:03 48.35761 -61.20654 39607 ft 430 kts 234°
2026-05-04 00:04 48.32621 -61.28319 39606 ft 431 kts 234°
2026-05-04 00:04 48.29471 -61.35984 39595 ft 432 kts 234°
2026-05-04 00:05 48.26334 -61.43598 39622 ft 432 kts 234°
2026-05-04 00:05 48.23166 -61.51266 39587 ft 433 kts 234°
2026-05-04 00:06 48.19987 -61.58941 39586 ft 433 kts 234°
2026-05-04 00:06 48.16802 -61.66605 39572 ft 434 kts 234°
2026-05-04 00:07 48.13630 -61.74218 39572 ft 434 kts 234°
2026-05-04 00:07 48.10431 -61.81874 39575 ft 434 kts 234°
2026-05-04 00:08 48.07226 -61.89521 39558 ft 434 kts 234°
2026-05-04 00:08 48.04014 -61.97164 39568 ft 434 kts 234°
2026-05-04 00:09 48.00813 -62.04761 39553 ft 435 kts 233°
2026-05-04 00:09 47.97583 -62.12404 39553 ft 436 kts 233°
2026-05-04 00:10 47.94344 -62.20046 39553 ft 435 kts 233°
2026-05-04 00:10 47.91104 -62.27672 39553 ft 435 kts 233°
2026-05-04 00:11 47.87876 -62.35245 39546 ft 437 kts 233°
2026-05-04 00:11 47.84608 -62.42892 39543 ft 438 kts 233°
2026-05-04 00:12 47.81326 -62.50548 39554 ft 438 kts 233°
2026-05-04 00:12 47.78044 -62.58186 39545 ft 439 kts 233°
2026-05-04 00:13 47.74775 -62.65772 39553 ft 439 kts 233°
2026-05-04 00:13 47.71481 -62.73394 39537 ft 439 kts 233°
2026-05-04 00:14 47.68181 -62.81007 39532 ft 438 kts 233°
2026-05-04 00:14 47.64875 -62.88613 39541 ft 438 kts 233°
2026-05-04 00:15 47.61567 -62.96205 39542 ft 438 kts 233°
2026-05-04 00:15 47.58272 -63.03742 39537 ft 439 kts 233°
2026-05-04 00:16 47.54943 -63.11336 39536 ft 440 kts 233°
2026-05-04 00:16 47.51606 -63.18929 39559 ft 440 kts 233°
2026-05-04 00:17 47.48258 -63.26527 39542 ft 441 kts 233°
2026-05-04 00:17 47.44926 -63.34068 39549 ft 441 kts 234°
2026-05-04 00:18 47.41563 -63.41657 39538 ft 442 kts 233°
2026-05-04 00:18 47.38192 -63.49245 39539 ft 442 kts 233°
2026-05-04 00:19 47.34818 -63.56816 39561 ft 442 kts 233°
2026-05-04 00:19 47.31457 -63.64339 39560 ft 442 kts 233°
2026-05-04 00:20 47.28073 -63.71891 39558 ft 442 kts 233°
2026-05-04 00:20 47.24673 -63.79457 39553 ft 443 kts 233°
2026-05-04 00:21 47.21274 -63.87004 39571 ft 443 kts 233°
2026-05-04 00:21 47.17865 -63.94549 39557 ft 443 kts 233°
2026-05-04 00:22 47.14477 -64.02030 39561 ft 443 kts 233°
2026-05-04 00:22 47.11059 -64.09556 39506 ft 443 kts 233°
2026-05-04 00:23 47.07634 -64.17075 39534 ft 443 kts 233°
2026-05-04 00:23 47.04227 -64.24535 39523 ft 443 kts 233°
2026-05-04 00:24 47.00794 -64.32032 39534 ft 443 kts 233°
2026-05-04 00:24 46.97351 -64.39529 39519 ft 444 kts 233°
2026-05-04 00:25 46.93899 -64.47026 39516 ft 444 kts 233°
2026-05-04 00:25 46.90466 -64.54465 39517 ft 444 kts 233°
2026-05-04 00:26 46.87004 -64.61944 39511 ft 444 kts 233°
2026-05-04 00:26 46.83539 -64.69409 39512 ft 444 kts 233°
2026-05-04 00:27 46.80071 -64.76859 39504 ft 443 kts 233°
2026-05-04 00:27 46.76620 -64.84255 39531 ft 445 kts 233°
2026-05-04 00:28 46.73126 -64.91722 39526 ft 446 kts 233°
2026-05-04 00:28 46.69626 -64.99181 39529 ft 446 kts 233°
2026-05-04 00:29 46.66120 -65.06635 39529 ft 446 kts 233°
2026-05-04 00:29 46.62611 -65.14076 39548 ft 446 kts 233°
2026-05-04 00:30 46.59120 -65.21459 39548 ft 446 kts 233°
2026-05-04 00:30 46.55600 -65.28880 39555 ft 446 kts 233°
2026-05-04 00:31 46.52073 -65.36299 39544 ft 446 kts 233°
2026-05-04 00:31 46.48538 -65.43713 39544 ft 446 kts 233°
2026-05-04 00:32 46.45599 -65.49863 39555 ft 446 kts 233°
2026-05-04 00:32 46.41484 -65.58452 39560 ft 446 kts 233°
2026-05-04 00:33 46.36157 -65.69531 39556 ft 447 kts 233°
2026-05-04 00:34 46.32599 -65.76907 39571 ft 447 kts 233°
2026-05-04 00:34 46.29057 -65.84229 39567 ft 447 kts 233°
2026-05-04 00:35 46.25488 -65.91589 39566 ft 447 kts 233°
2026-05-04 00:35 46.21915 -65.98938 39564 ft 447 kts 233°
2026-05-04 00:36 46.18941 -66.05039 39569 ft 447 kts 233°
2026-05-04 00:36 46.15359 -66.12371 39576 ft 447 kts 233°
2026-05-04 00:37 46.11192 -66.20877 39575 ft 447 kts 233°
2026-05-04 00:37 46.08202 -66.26964 39575 ft 447 kts 233°
2026-05-04 00:38 46.04608 -66.34263 39576 ft 447 kts 233°
2026-05-04 00:38 46.01005 -66.41561 39590 ft 447 kts 233°
2026-05-04 00:39 45.97395 -66.48854 39592 ft 448 kts 233°
2026-05-04 00:39 45.93802 -66.56096 39590 ft 448 kts 233°
2026-05-04 00:40 45.90187 -66.63365 39589 ft 447 kts 233°
2026-05-04 00:40 45.86564 -66.70628 39606 ft 447 kts 233°
2026-05-04 00:41 45.82939 -66.77876 39611 ft 447 kts 233°
2026-05-04 00:41 45.79331 -66.85074 39606 ft 447 kts 233°
2026-05-04 00:42 45.75700 -66.92297 39600 ft 447 kts 233°
2026-05-04 00:42 45.72061 -66.99521 39618 ft 447 kts 233°
2026-05-04 00:43 45.68419 -67.06730 39625 ft 447 kts 233°
2026-05-04 00:43 45.64796 -67.13883 39633 ft 447 kts 233°
2026-05-04 00:44 45.61139 -67.21084 39623 ft 448 kts 233°
2026-05-04 00:44 45.57478 -67.28275 39642 ft 448 kts 233°
2026-05-04 00:45 45.53814 -67.35456 39640 ft 448 kts 233°
2026-05-04 00:45 45.50165 -67.42587 39639 ft 448 kts 233°
2026-05-04 00:46 45.46494 -67.49744 39642 ft 447 kts 233°
2026-05-04 00:46 45.42815 -67.56899 39656 ft 447 kts 233°
2026-05-04 00:47 45.39137 -67.64034 39659 ft 447 kts 233°
2026-05-04 00:47 45.35469 -67.71112 39652 ft 447 kts 232°
2026-05-04 00:48 45.31097 -67.77351 39659 ft 446 kts 221°
2026-05-04 00:48 45.26364 -67.83051 39664 ft 446 kts 220°
2026-05-04 00:49 45.21617 -67.88724 39656 ft 446 kts 220°
2026-05-04 00:49 45.16898 -67.94347 39690 ft 446 kts 221°
2026-05-04 00:50 45.12145 -67.99997 39674 ft 446 kts 221°
2026-05-04 00:50 45.07382 -68.05647 39675 ft 447 kts 221°
2026-05-04 00:51 45.02615 -68.11289 39677 ft 447 kts 221°
2026-05-04 00:51 44.97880 -68.16880 39679 ft 447 kts 221°
2026-05-04 00:52 44.93113 -68.22496 39686 ft 447 kts 221°
2026-05-04 00:52 44.88338 -68.28110 39686 ft 447 kts 221°
2026-05-04 00:53 44.83563 -68.33711 39696 ft 447 kts 221°
2026-05-04 00:53 44.78787 -68.39300 39697 ft 446 kts 221°
2026-05-04 00:54 44.74038 -68.44845 39688 ft 447 kts 221°
2026-05-04 00:54 44.69250 -68.50424 39698 ft 447 kts 221°
2026-05-04 00:55 44.64466 -68.55986 39706 ft 447 kts 221°
2026-05-04 00:55 44.59679 -68.61539 39699 ft 446 kts 221°
2026-05-04 00:56 44.54887 -68.67085 39700 ft 446 kts 220°
2026-05-04 00:56 44.50126 -68.72584 39711 ft 446 kts 221°
2026-05-04 00:57 44.45338 -68.78102 39719 ft 446 kts 221°
2026-05-04 00:57 44.40541 -68.83617 39705 ft 446 kts 221°
2026-05-04 00:57 44.38145 -68.86367 39546 ft 444 kts 221°
2026-05-04 00:58 44.35766 -68.89095 39321 ft 441 kts 221°
2026-05-04 00:58 44.33429 -68.91771 39119 ft 440 kts 221°
2026-05-04 00:58 44.31059 -68.94483 38900 ft 440 kts 221°
2026-05-04 00:58 44.28688 -68.97193 38678 ft 441 kts 221°
2026-05-04 00:59 44.26314 -68.99905 38482 ft 441 kts 221°
2026-05-04 00:59 44.23935 -69.02619 38250 ft 442 kts 221°
2026-05-04 00:59 44.21556 -69.05330 37980 ft 442 kts 221°
2026-05-04 00:59 44.19176 -69.08038 37707 ft 442 kts 221°
2026-05-04 01:00 44.16788 -69.10753 37448 ft 442 kts 221°
2026-05-04 01:00 44.14435 -69.13424 37193 ft 442 kts 221°
2026-05-04 01:00 44.12051 -69.16130 36928 ft 442 kts 221°
2026-05-04 01:00 44.09664 -69.18835 36692 ft 443 kts 221°
2026-05-04 01:01 44.07277 -69.21538 36512 ft 443 kts 221°
2026-05-04 01:01 44.04883 -69.24245 36257 ft 444 kts 221°
2026-05-04 01:01 44.02485 -69.26954 36003 ft 444 kts 221°
2026-05-04 01:01 44.00088 -69.29658 35667 ft 442 kts 221°
2026-05-04 01:02 43.97699 -69.32352 35093 ft 443 kts 221°
2026-05-04 01:02 43.95298 -69.35056 34442 ft 446 kts 221°
2026-05-04 01:02 43.92882 -69.37776 33767 ft 449 kts 221°
2026-05-04 01:02 43.90480 -69.40475 32977 ft 451 kts 221°
2026-05-04 01:03 43.88041 -69.43213 32234 ft 452 kts 221°
2026-05-04 01:03 43.85592 -69.45959 31593 ft 451 kts 222°
2026-05-04 01:03 43.83167 -69.48673 31107 ft 446 kts 222°
2026-05-04 01:03 43.80765 -69.51359 30612 ft 442 kts 222°
2026-05-04 01:04 43.78379 -69.54025 30104 ft 438 kts 222°
2026-05-04 01:04 43.76017 -69.56662 29552 ft 435 kts 222°
2026-05-04 01:04 43.73616 -69.59178 29017 ft 432 kts 216°
2026-05-04 01:04 43.70982 -69.61037 28582 ft 430 kts 205°
2026-05-04 01:05 43.68160 -69.62399 28211 ft 430 kts 202°
2026-05-04 01:05 43.65319 -69.63674 27822 ft 430 kts 202°
2026-05-04 01:05 43.62477 -69.64944 27427 ft 428 kts 202°
2026-05-04 01:05 43.59649 -69.66212 27048 ft 426 kts 202°
2026-05-04 01:06 43.56840 -69.67473 26667 ft 424 kts 202°
2026-05-04 01:06 43.54038 -69.68733 26271 ft 422 kts 203°
2026-05-04 01:06 43.51257 -69.69983 25901 ft 421 kts 203°
2026-05-04 01:06 43.48474 -69.71234 25524 ft 420 kts 203°
2026-05-04 01:07 43.45742 -69.72462 25160 ft 419 kts 203°
2026-05-04 01:07 43.42978 -69.73702 24779 ft 417 kts 203°
2026-05-04 01:07 43.40224 -69.74936 24416 ft 415 kts 203°
2026-05-04 01:07 43.37487 -69.76163 24034 ft 413 kts 203°
2026-05-04 01:08 43.34755 -69.77384 23655 ft 413 kts 204°
2026-05-04 01:08 43.32023 -69.78606 23276 ft 413 kts 204°
2026-05-04 01:08 43.29296 -69.79825 22871 ft 411 kts 204°
2026-05-04 01:08 43.26586 -69.81034 22534 ft 409 kts 202°
2026-05-04 01:09 43.23898 -69.82224 22143 ft 403 kts 203°
2026-05-04 01:09 43.21286 -69.83386 21791 ft 397 kts 204°
2026-05-04 01:09 43.18670 -69.84554 21426 ft 395 kts 204°
2026-05-04 01:09 43.16058 -69.85718 21066 ft 394 kts 204°
2026-05-04 01:10 43.13459 -69.86875 20705 ft 392 kts 204°
2026-05-04 01:10 43.10860 -69.88032 20366 ft 394 kts 204°
2026-05-04 01:10 43.08254 -69.89189 20009 ft 393 kts 204°
2026-05-04 01:10 43.05655 -69.90341 19655 ft 391 kts 204°
2026-05-04 01:11 43.03108 -69.91468 19312 ft 389 kts 204°
2026-05-04 01:11 43.00538 -69.92610 18957 ft 387 kts 204°
2026-05-04 01:11 42.97981 -69.93742 18610 ft 385 kts 204°
2026-05-04 01:11 42.95437 -69.94864 18266 ft 383 kts 204°
2026-05-04 01:12 42.92908 -69.95980 17896 ft 381 kts 204°
2026-05-04 01:12 42.90387 -69.97092 17540 ft 379 kts 204°
2026-05-04 01:12 42.87887 -69.98193 17197 ft 377 kts 204°
2026-05-04 01:12 42.85400 -69.99289 16857 ft 375 kts 204°
2026-05-04 01:13 42.82926 -70.00378 16496 ft 372 kts 204°
2026-05-04 01:13 42.80505 -70.01443 16189 ft 370 kts 204°
2026-05-04 01:13 42.78064 -70.02515 15857 ft 367 kts 204°
2026-05-04 01:13 42.75641 -70.03579 15532 ft 365 kts 204°
2026-05-04 01:14 42.73254 -70.04708 15211 ft 361 kts 207°
2026-05-04 01:14 42.70904 -70.05892 14877 ft 359 kts 207°
2026-05-04 01:14 42.68570 -70.07067 14559 ft 357 kts 207°
2026-05-04 01:14 42.66348 -70.08477 14229 ft 346 kts 220°
2026-05-04 01:15 42.64628 -70.10627 13909 ft 329 kts 240°
2026-05-04 01:15 42.63504 -70.13271 13623 ft 320 kts 250°
2026-05-04 01:15 42.62585 -70.15962 13386 ft 315 kts 251°
2026-05-04 01:15 42.61688 -70.18619 13192 ft 306 kts 251°
2026-05-04 01:16 42.60808 -70.21206 12995 ft 297 kts 251°
2026-05-04 01:16 42.60010 -70.23744 12816 ft 288 kts 255°
2026-05-04 01:16 42.59356 -70.26252 12556 ft 277 kts 257°
2026-05-04 01:16 42.58746 -70.28683 12069 ft 267 kts 257°
2026-05-04 01:17 42.58150 -70.31068 11798 ft 269 kts 257°
2026-05-04 01:17 42.57551 -70.33467 11642 ft 267 kts 257°
2026-05-04 01:17 42.56950 -70.35854 11324 ft 267 kts 257°
2026-05-04 01:17 42.56357 -70.38203 11042 ft 266 kts 256°
2026-05-04 01:18 42.55756 -70.40576 10799 ft 266 kts 256°
2026-05-04 01:18 42.55156 -70.42945 10563 ft 265 kts 256°
2026-05-04 01:18 42.54557 -70.45304 10320 ft 265 kts 256°
2026-05-04 01:18 42.53959 -70.47656 10083 ft 263 kts 256°
2026-05-04 01:19 42.53362 -70.50004 9843 ft 263 kts 256°
2026-05-04 01:19 42.52769 -70.52340 9598 ft 261 kts 257°
2026-05-04 01:19 42.52229 -70.54647 9365 ft 261 kts 258°
2026-05-04 01:19 42.51698 -70.57001 9132 ft 260 kts 258°
2026-05-04 01:20 42.51169 -70.59327 8884 ft 258 kts 258°
2026-05-04 01:20 42.50638 -70.61653 8677 ft 257 kts 258°
2026-05-04 01:20 42.50109 -70.63953 8437 ft 256 kts 258°
2026-05-04 01:20 42.49579 -70.66255 8210 ft 254 kts 258°
2026-05-04 01:21 42.49050 -70.68543 7983 ft 254 kts 258°
2026-05-04 01:21 42.48523 -70.70820 7760 ft 252 kts 258°
2026-05-04 01:21 42.48006 -70.73053 7522 ft 252 kts 258°
2026-05-04 01:21 42.47482 -70.75315 7295 ft 250 kts 258°
2026-05-04 01:22 42.46960 -70.77559 7071 ft 250 kts 258°
2026-05-04 01:22 42.46427 -70.79785 6853 ft 247 kts 255°
2026-05-04 01:22 42.45576 -70.81835 6618 ft 257 kts 236°
2026-05-04 01:22 42.44112 -70.83308 6409 ft 270 kts 211°
2026-05-04 01:23 42.42323 -70.84166 6170 ft 274 kts 204°
2026-05-04 01:23 42.40502 -70.84902 5894 ft 273 kts 204°
2026-05-04 01:23 42.38616 -70.85345 5661 ft 279 kts 185°
2026-05-04 01:23 42.36711 -70.84944 5512 ft 276 kts 171°
2026-05-04 01:24 42.34907 -70.84294 5364 ft 269 kts 169°
2026-05-04 01:24 42.33230 -70.83199 5150 ft 270 kts 145°
2026-05-04 01:24 42.31854 -70.81503 5020 ft 264 kts 137°
2026-05-04 01:24 42.30569 -70.79752 4985 ft 263 kts 137°
2026-05-04 01:25 42.29278 -70.78002 4791 ft 262 kts 137°
2026-05-04 01:25 42.28006 -70.76292 4676 ft 255 kts 137°
2026-05-04 01:25 42.26756 -70.74630 4462 ft 251 kts 138°
2026-05-04 01:25 42.25512 -70.72991 4222 ft 248 kts 138°
2026-05-04 01:26 42.24208 -70.71547 3947 ft 243 kts 156°
2026-05-04 01:26 42.22631 -70.71062 3750 ft 226 kts 191°
2026-05-04 01:26 42.21232 -70.71701 3636 ft 205 kts 219°
2026-05-04 01:26 42.20099 -70.72788 3500 ft 195 kts 225°
2026-05-04 01:27 42.19205 -70.74054 3321 ft 179 kts 251°
2026-05-04 01:27 42.19038 -70.75613 3211 ft 163 kts 280°
2026-05-04 01:27 42.19238 -70.77074 3082 ft 156 kts 285°
2026-05-04 01:27 42.19484 -70.78467 2981 ft 150 kts 287°
2026-05-04 01:28 42.20005 -70.79639 2976 ft 151 kts 322°
2026-05-04 01:28 42.20916 -70.80348 2990 ft 152 kts 324°
2026-05-04 01:28 42.21755 -70.81210 2990 ft 152 kts 317°
2026-05-04 01:28 42.22557 -70.82142 2991 ft 152 kts 316°
2026-05-04 01:29 42.23351 -70.83087 2991 ft 152 kts 316°
2026-05-04 01:29 42.24148 -70.84034 2990 ft 153 kts 316°
2026-05-04 01:29 42.24908 -70.85028 2983 ft 152 kts 313°
2026-05-04 01:29 42.25661 -70.86043 2832 ft 152 kts 314°
2026-05-04 01:30 42.26394 -70.87015 2648 ft 147 kts 314°
2026-05-04 01:30 42.27110 -70.87969 2424 ft 142 kts 313°
2026-05-04 01:30 42.27802 -70.88895 2208 ft 139 kts 313°
2026-05-04 01:30 42.28487 -70.89811 2020 ft 138 kts 314°
2026-05-04 01:31 42.29170 -70.90724 1841 ft 139 kts 313°
2026-05-04 01:31 42.29852 -70.91637 1634 ft 135 kts 314°
2026-05-04 01:31 42.30498 -70.92502 1462 ft 128 kts 313°
2026-05-04 01:31 42.31128 -70.93347 1299 ft 128 kts 314°
2026-05-04 01:32 42.31759 -70.94189 1114 ft 131 kts 314°
2026-05-04 01:32 42.32414 -70.95060 902 ft 133 kts 313°
2026-05-04 01:32 42.33050 -70.95932 689 ft 126 kts 316°
2026-05-04 01:32 42.33665 -70.96747 524 ft 123 kts 311°
2026-05-04 01:33 42.34263 -70.97567 401 ft 123 kts 315°
2026-05-04 01:33 42.34881 -70.98379 242 ft 125 kts 312°
2026-05-04 01:33 42.35500 -70.99212 53 ft 127 kts 315°
2026-05-04 01:33 42.36057 -70.99958 28 ft 89 kts 315°
2026-05-04 01:34 42.36360 -71.00360 29 ft 31 kts 315°
2026-05-04 01:34 42.36490 -71.00538 30 ft 23 kts 312°
2026-05-04 01:34 42.36528 -71.00718 30 ft 15 kts 274°
2026-05-04 01:34 42.36531 -71.00775 30 ft 0 kts 275°
2026-05-04 01:35 42.36532 -71.00790 30 ft 3 kts 276°
2026-05-04 01:35 42.36535 -71.00836 30 ft 6 kts 268°
2026-05-04 01:35 42.36507 -71.00900 30 ft 9 kts 227°
2026-05-04 01:36 42.36500 -71.00986 30 ft 10 kts 288°
2026-05-04 01:36 42.36528 -71.01081 30 ft 12 kts 292°
2026-05-04 01:36 42.36560 -71.01182 30 ft 10 kts 303°
2026-05-04 01:36 42.36622 -71.01194 30 ft 10 kts 16°
2026-05-04 01:37 42.36695 -71.01161 30 ft 12 kts 18°
2026-05-04 01:37 42.36783 -71.01151 30 ft 13 kts 341°
2026-05-04 01:37 42.36856 -71.01237 30 ft 15 kts 316°
2026-05-04 01:37 42.36934 -71.01339 30 ft 16 kts 315°
2026-05-04 01:38 42.37017 -71.01451 30 ft 18 kts 314°
2026-05-04 01:38 42.37098 -71.01560 30 ft 13 kts 315°
2026-05-04 01:38 42.37142 -71.01629 30 ft 9 kts 292°
2026-05-04 01:38 42.37133 -71.01713 30 ft 10 kts 258°
2026-05-04 01:39 42.37148 -71.01805 30 ft 11 kts 303°
2026-05-04 01:39 42.37167 -71.01864 30 ft 4 kts 265°
2026-05-04 01:39 42.37144 -71.01899 30 ft 6 kts 216°
2026-05-04 01:39 42.37119 -71.01921 30 ft 4 kts 212°
2026-05-04 01:40 42.37107 -71.01931 28 ft 2 kts 212°
2026-05-04 01:40 42.37105 -71.01933 28 ft 0 kts 212°